DW2488 Weather Reports


time (UTC)temp
F
wind
direction
speed
knots
gust
knots
rain 1hr
in
rain 24hr
in
rain mn
in
humidity
%
barometer
mb
20260503210612 58 0 1.7 3.5 0.00 0.00 0.00 88 1016.3
20260503205117 58 0 0.9 2.6 0.00 0.00 0.00 88 1016.3
20260503203612 58 0 0.0 1.7 0.00 0.00 0.00 88 1016.3
20260503202104 58 0 0.9 1.7 0.00 0.00 0.00 88 1016.2
20260503200603 58 140 0.9 2.6 0.00 0.00 0.00 88 1016.0
20260503195052 57 0 1.7 3.5 0.00 0.00 0.00 88 1015.8
20260503193554 57 0 0.9 3.5 0.00 0.00 0.00 88 1015.9
20260503192049 57 0 1.7 3.5 0.00 0.00 0.00 88 1016.0
20260503190550 57 0 0.9 2.6 0.00 0.00 0.00 88 1015.9
20260503185035 57 0 2.6 4.3 0.00 0.00 0.00 88 1016.0
20260503183524 57 140 1.7 3.5 0.00 0.00 0.00 88 1016.0
20260503182023 56 0 1.7 3.5 0.00 0.00 0.00 88 1016.1
20260503180521 56 0 1.7 4.3 0.00 0.00 0.00 88 1016.1
20260503175022 56 0 1.7 3.5 0.00 0.00 0.00 88 1016.0
20260503173516 56 0 0.9 3.5 0.00 0.00 0.00 88 1016.0
20260503172017 56 0 0.9 2.6 0.00 0.00 0.00 88 1016.1
20260503170536 56 0 1.7 4.3 0.00 0.00 0.00 88 1016.4
20260503150456 57 0 0.9 2.6 0.00 0.00 0.00 87 1017.3
20260503130411 59 0 1.7 3.5 0.00 0.00 0.00 85 1018.3
20260503110430 62 0 0.0 0.0 0.00 0.00 0.00 82 1018.7
20260503090346 67 0 0.9 2.6 0.00 0.00 0.00 76 1018.6
20260503080312 69 34 1.7 7.8 0.00 0.00 0.00 72 1018.2
20260503071812 72 0 1.7 9.6 0.00 0.00 0.00 68 1017.9
20260503070312 73 69 2.6 7.8 0.00 0.00 0.00 66 1018.0
20260503060311 77 0 0.9 4.3 0.00 0.00 0.00 55 1018.1
20260503054812 77 0 0.9 5.2 0.00 0.00 0.00 57 1018.4
20260503053312 76 40 0.9 3.5 0.00 0.00 0.00 58 1018.4
20260503051812 76 0 0.9 4.3 0.00 0.00 0.00 58 1018.5
20260503050311 77 48 0.9 4.3 0.00 0.00 0.00 57 1018.7
20260503044816 76 0 1.7 7.0 0.00 0.00 0.00 58 1018.7
20260503043314 77 0 0.9 4.3 0.00 0.00 0.00 55 1018.9
20260503041812 77 21 0.9 5.2 0.00 0.00 0.00 55 1018.9
20260503040310 78 37 1.7 8.7 0.00 0.00 0.00 54 1019.1
20260503034818 78 0 0.9 7.0 0.00 0.02 0.00 53 1019.3
20260503033310 78 0 1.7 7.8 0.00 0.02 0.00 54 1019.2
20260503031816 79 0 1.7 8.7 0.00 0.02 0.00 54 1019.6
20260503030312 78 41 0.9 7.8 0.00 0.02 0.00 57 1019.6
20260503024812 77 0 1.7 8.7 0.00 0.02 0.00 57 1019.8
20260503023312 76 58 1.7 7.0 0.00 0.02 0.00 60 1020.2
20260503021812 76 0 0.9 5.2 0.00 0.02 0.00 60 1020.4
20260503020312 77 0 0.9 5.2 0.00 0.02 0.00 58 1020.5
20260503014812 77 326 0.9 7.0 0.00 0.02 0.00 60 1021.1
20260503013310 77 45 0.0 3.5 0.00 0.02 0.00 63 1021.5
20260503011812 76 55 0.9 4.3 0.00 0.02 0.00 63 1021.8
20260503010309 75 49 0.9 5.2 0.00 0.02 0.00 66 1022.1
20260503004812 73 349 0.9 3.5 0.00 0.02 0.00 66 1022.2
20260503003312 71 279 0.9 3.5 0.00 0.02 0.00 71 1022.4
20260503001810 70 279 0.9 4.3 0.00 0.02 0.00 72 1022.7
20260503000312 70 293 0.9 2.6 0.00 0.02 0.00 75 1022.8
20260502234812 69 148 0.0 0.9 0.00 0.02 0.00 76 1022.7
20260502233311 68 150 0.0 1.7 0.00 0.02 0.00 80 1022.5
20260502231812 65 0 0.0 1.7 0.00 0.02 0.00 85 1022.8
20260502230311 63 0 0.0 1.7 0.00 0.02 0.00 90 1022.7
20260502224810 61 158 1.7 4.3 0.00 0.02 0.00 92 1022.9
20260502223312 60 151 0.9 3.5 0.00 0.02 0.00 92 1023.0
20260502221810 59 143 0.9 3.5 0.00 0.02 0.00 93 1023.0
20260502220312 58 0 2.6 4.3 0.00 0.02 0.00 92 1022.9
20260502214812 57 114 1.7 5.2 0.00 0.02 0.00 92 1022.7
20260502213312 56 140 1.7 4.3 0.00 0.02 0.00 92 1022.5
20260502211812 56 0 0.9 2.6 0.00 0.02 0.00 90 1022.1